SL-16 DEB

基本信息
目录编号:
25863
目录名称:
SL-16 DEB
国际标识:
1999-039D
轨道中心:
EARTH
物体状态:
在轨
发射日期:
1999-07-17 UTC
轨道信息
数据来源: 国际轨道数据
星历时间: 2026-07-14T02:32:52+0800
半长轴: 7114.236km
偏心率: 0.0148302
轨道倾角: 98.364°
近地点辐角: 121.261°
升交点赤经: 265.098°
平近点角: 354.320°
近地点: 630.593km
远地点: 841.605km
周期: 99.530分钟
每日圈数: 14.468065
详细信息
发射场:
TTMTR
轨道高度:
LEO
数据来源:
AOE Integration Group
参考系:
TEME
时间系统:
UTC
历元类型:
SGP4
2D轨道图
3D轨道图
轨道高度分析图
轨道倾角分析图
轨道综合分析图
查看轨道综合分析图